Cortez, CO

6:41 PM MDT on June 24, 2018 (GMT -0600)
Cortez Municipal

Weather History for KCEZ - August, 2017

Change the Weather History Date:

Sunday, August 13, 2017

  Actual Average Record
Temperature  
Mean Temperature 71 °F 70 °F  
Max Temperature 88 °F 87 °F 96 °F (1996)
Min Temperature 54 °F 54 °F 43 °F (1999)
Degree Days  
Heating Degree Days 0 0  
Month to date heating degree days 0 0  
Since 1 June heating degree days 21 78  
Since 1 July heating degree days 0 3  
Cooling Degree Days 6 5  
Month to date cooling degree days 55 82  
Year to date cooling degree days 444 346  
Since 1 June cooling degree days 440 341  
Growing Degree Days 20 (Base 50)    
Moisture  
Dew Point 49 °F    
Average Humidity 53    
Maximum Humidity 83    
Minimum Humidity 23    
Precipitation  
Precipitation T in 0.05 in 0.30 in (2014)
Month to date precipitation 0.32 0.68  
Year to date precipitation 7.96 7.59  
Sea Level Pressure  
Sea Level Pressure 29.93 in    
Wind  
Wind Speed 7 mph (North)    
Max Wind Speed 22 mph    
Max Gust Speed 28 mph    
Visibility 10 miles    
Events Thunderstorm    
T = Trace of Precipitation, MM = Missing Value Source: NWS Daily Summary

Daily Weather History Graph

Daily Weather History Graph

Search for Another Location

Airport or City:

Astronomy

Aug. 13, 2017 Rise Set
Actual Time 6:29 AM MDT 8:08 PM MDT
Civil Twilight 6:01 AM MDT 8:36 PM MDT
Nautical Twilight 5:27 AM MDT 9:09 PM MDT
Astronomical Twilight 4:52 AM MDT 9:45 PM MDT
Moon 11:53 PM MDT (8/13) 12:24 PM MDT (8/13)
Length of Visible Light 14h 34m
Length of Day
13h 39m
Waning Gibbous, 65% of the Moon is Illuminated
Aug 13
Waning Gibbous
Aug 14
Last Quarter
Aug 21
New
Aug 29
First Quarter
Sep 6
Full

Hourly Weather History & Observations

Time (MDT) Temp. Dew Point Humidity Pressure Visibility Wind Dir Wind Speed Gust Speed Precip Events Conditions
12:53 AM 57.9 °F 51.1 °F 78% 29.96 in 10.0 mi East 5.8 mph - N/A   Clear
1:53 AM 59.0 °F 50.0 °F 72% 29.94 in 10.0 mi North 4.6 mph - N/A   Clear
2:53 AM 57.0 °F 50.0 °F 77% 29.93 in 10.0 mi East 5.8 mph - N/A   Clear
3:53 AM 55.9 °F 48.9 °F 77% 29.94 in 10.0 mi Calm Calm - N/A   Clear
4:53 AM 55.0 °F 48.9 °F 80% 29.93 in 10.0 mi ENE 4.6 mph - N/A   Overcast
5:53 AM 55.9 °F 48.9 °F 77% 29.94 in 10.0 mi ENE 4.6 mph - N/A   Mostly Cloudy
6:34 AM 55.9 °F 50.0 °F 80% 30.19 in 10.0 mi NW 3.5 mph - N/A Thunderstorm Overcast
6:49 AM 55.4 °F 50.0 °F 82% 30.19 in 10.0 mi Calm Calm - N/A   Overcast
6:53 AM 55.9 °F 50.0 °F 80% 29.98 in 10.0 mi Calm Calm - N/A   Overcast
7:53 AM 60.1 °F 51.1 °F 72% 29.99 in 10.0 mi SE 6.9 mph - 0.00 in   Clear
8:53 AM 68.0 °F 50.0 °F 52% 29.97 in 10.0 mi NE 5.8 mph - N/A   Clear
9:53 AM 75.0 °F 51.1 °F 43% 29.95 in 10.0 mi Calm Calm - N/A   Clear
10:53 AM 78.1 °F 51.1 °F 39% 29.95 in 10.0 mi Variable 4.6 mph 18.4 mph N/A   Clear
11:53 AM 81.0 °F 46.9 °F 30% 29.94 in 10.0 mi WNW 13.8 mph 20.7 mph N/A   Clear
12:53 PM 82.0 °F 48.0 °F 30% 29.94 in 10.0 mi WNW 13.8 mph - N/A   Clear
1:53 PM 84.0 °F 46.0 °F 26% 29.90 in 10.0 mi West 11.5 mph - N/A   Clear
2:53 PM 84.9 °F 46.0 °F 26% 29.87 in 10.0 mi WNW 16.1 mph 20.7 mph N/A   Clear
3:53 PM 86.0 °F 45.0 °F 24% 29.85 in 10.0 mi WNW 15.0 mph 21.9 mph N/A   Clear
4:53 PM 79.0 °F 46.9 °F 32% 29.86 in 10.0 mi NNW 6.9 mph - N/A   Clear
5:53 PM 82.9 °F 46.0 °F 27% 29.84 in 10.0 mi WNW 10.4 mph - N/A   Clear
6:53 PM 81.0 °F 46.0 °F 29% 29.83 in 10.0 mi WNW 3.5 mph - N/A   Clear
7:53 PM 75.0 °F 51.1 °F 43% 29.83 in 10.0 mi Calm Calm - N/A   Clear
8:53 PM 68.0 °F 52.0 °F 56% 29.84 in 10.0 mi NE 4.6 mph - N/A   Clear
9:53 PM 64.9 °F 50.0 °F 58% 29.85 in 10.0 mi ENE 5.8 mph - N/A   Clear
10:53 PM 62.1 °F 48.9 °F 62% 29.86 in 10.0 mi ENE 5.8 mph - N/A   Clear
11:53 PM 60.1 °F 50.0 °F 69% 29.85 in 10.0 mi ENE 5.8 mph - N/A   Clear